QPF
0.00 0.00 0.00 0.00 0.00 0.00 0.00 0.00 0.00 0.00 0.00 0.00 0.00 0.00 0.00 0.00 0.00 0.00 0.00 0.00 0.00 0.00 0.00 0.00 0.00 0.00 0.00
0.00 0.00 0.00 0.00 0.00 0.00 0.00 0.00 0.00 0.00 0.00 0.00 0.00 0.00 0.00 0.00 0.00 0.00 0.00 0.00 0.00 0.00 0.00 0.00 0.00 0.00 0.00
0.00 0.00 0.00 0.00 0.00 0.00 0.00 0.00 0.00 0.00 0.00 0.00 0.00 0.00 0.00 0.00 0.00 0.00 0.00 0.00 0.00 0.00 0.00 0.00 0.00 0.00 0.00
0.00 0.00 0.00 0.00 0.00 0.00 0.00 0.00 0.00 0.00 0.00 0.00 0.00 0.00 0.00 0.00 0.00 0.00 0.00 0.00 0.00 0.00 0.00 0.00 0.00 0.00 0.00
0.00 0.00 0.00 0.00 0.00 0.00 0.00 0.00 0.00 0.00 0.00 0.00 0.00 0.00 0.00 0.00 0.00 0.00 0.00 0.00 0.00 0.00 0.00 0.00 0.00 0.00 0.00
0.00 0.00 0.00 0.00 0.00 0.00 0.00 0.00 0.00 0.00 0.00 0.00 0.00 0.00 0.00 0.00 0.00 0.00 0.00 0.00 0.00 0.00 0.00 0.00 0.00 0.00 0.00
0.00 0.00 0.00 0.00 0.00 0.00 0.00 0.01 0.01 0.00 0.00 0.00 0.00 0.00 0.00 0.00 0.00 0.00 0.00 0.00 0.00 0.00 0.00 0.00 0.00 0.00 0.00
0.00 0.00 0.00 0.00 0.00 0.01 0.01 0.01 0.01 0.00 0.00 0.00 0.00 0.00 0.00 0.00 0.00 0.00 0.00 0.00 0.00 0.00 0.00 0.00 0.00 0.00 0.01
0.00 0.00 0.00 0.00 0.01 0.01 0.01 0.02 0.01 0.00 0.00 0.00 0.00 0.00 0.00 0.00 0.00 0.00 0.00 0.00 0.00 0.00 0.00 0.00 0.00 0.00 0.00
0.00 0.00 0.00 0.00 0.00 0.00 0.00 0.01 0.01 0.00 0.00 0.01 0.01 0.01 0.01 0.00 0.00 0.00 0.00 0.00 0.00 0.00 0.00 0.00 0.00 0.00 0.00
0.00 0.00 0.00 0.00 0.00 0.00 0.00 0.00 0.01 0.00 0.00 0.03 0.03 0.01 0.01 0.00 0.00 0.00 0.00 0.00 0.00 0.00 0.00 0.00 0.00 0.00 0.00
0.00 0.00 0.00 0.00 0.00 0.00 0.00 0.00 0.00 0.00 0.00 0.01 0.03 0.01 0.02 0.01 0.00 0.00 0.00 0.00 0.00 0.00 0.00 0.00 0.00 0.00 0.00
0.00 0.00 0.00 0.00 0.00 0.00 0.00 0.00 0.00 0.00 0.00 0.00 0.02 0.04 0.05 0.02 0.00 0.00 0.00 0.00 0.00 0.00 0.00 0.00 0.00 0.00 0.00
0.00 0.00 0.00 0.00 0.00 0.00 0.00 0.00 0.00 0.00 0.00 0.00 0.01 0.01 0.01 0.00 0.00 0.00 0.00 0.00 0.00 0.00 0.00 0.00 0.00 0.00 0.00
0.00 0.00 0.00 0.00 0.00 0.00 0.00 0.01 0.01 0.00 0.00 0.00 0.00 0.00 0.00 0.00 0.00 0.00 0.00 0.00 0.00 0.00 0.00 0.00 0.00 0.00 0.00
0.00 0.00 0.00 0.00 0.00 0.00 0.01 0.01 0.01 0.00 0.00 0.00 0.00 0.00 0.00 0.00 0.00 0.00 0.00 0.00 0.00 0.00 0.00 0.00 0.00 0.00 0.00
0.00 0.00 0.00 0.01 0.01 0.01 0.00 0.01 0.00 0.00 0.00 0.00 0.00 0.01 0.01 0.00 0.00 0.00 0.00 0.00 0.00 0.00 0.00 0.00 0.00 0.00 0.00
MSLP
1024.30 1024.21 1024.25 1023.88 1023.42 1023.24 1022.97 1022.70 1022.30 1022.06 1021.82 1021.51 1021.10 1020.87 1020.60 1020.16 1019.82 1019.55 1019.29 1018.67 1018.39 1017.99 1017.64 1017.03 1016.52 1016.04 1015.67
1024.49 1024.15 1024.16 1023.95 1023.57 1023.36 1023.10 1022.61 1022.31 1022.22 1021.89 1021.85 1021.15 1020.93 1020.56 1020.28 1019.88 1019.25 1018.80 1018.56 1018.20 1017.79 1017.27 1016.71 1016.29 1015.92 1015.43
1024.26 1024.03 1023.99 1023.83 1023.36 1023.15 1022.84 1022.33 1022.11 1021.83 1021.54 1021.00 1020.75 1020.71 1020.44 1019.84 1019.64 1019.38 1018.79 1018.48 1017.96 1017.39 1016.99 1016.53 1016.00 1015.51 1014.94
1023.95 1023.82 1023.73 1023.52 1023.27 1022.52 1021.97 1021.87 1021.62 1021.40 1021.22 1020.43 1020.22 1020.13 1019.86 1019.48 1018.93 1018.92 1018.70 1018.19 1017.61 1017.12 1016.62 1016.07 1015.55 1015.03 1014.36
1023.63 1023.65 1023.24 1022.97 1022.74 1022.44 1022.06 1021.61 1021.29 1020.99 1020.44 1020.38 1020.15 1019.22 1018.54 1018.60 1018.29 1018.19 1018.09 1017.60 1017.12 1016.56 1016.13 1015.75 1015.25 1014.72 1014.02
1023.56 1023.09 1022.79 1022.36 1022.26 1021.89 1021.60 1021.54 1020.77 1021.01 1020.17 1019.98 1019.38 1019.02 1018.35 1018.11 1017.91 1017.94 1017.52 1017.08 1016.55 1016.11 1015.74 1015.28 1014.73 1014.07 1013.34
1023.34 1023.11 1022.58 1022.30 1022.20 1021.80 1021.93 1021.69 1021.16 1020.38 1020.47 1019.82 1019.47 1018.75 1017.81 1017.68 1017.51 1017.29 1016.91 1016.57 1016.15 1015.72 1015.26 1014.72 1014.08 1013.33 1012.63
1023.42 1022.55 1022.40 1022.29 1022.00 1021.15 1021.28 1021.17 1020.93 1020.78 1019.99 1019.04 1018.81 1018.21 1017.58 1017.33 1017.13 1016.79 1016.67 1016.35 1015.85 1015.28 1014.69 1014.03 1013.35 1012.60 1011.96
1022.74 1022.63 1022.46 1022.15 1021.93 1021.41 1020.89 1020.65 1020.22 1019.56 1019.15 1018.83 1018.59 1017.96 1017.56 1017.14 1016.75 1016.51 1016.31 1015.88 1015.30 1014.69 1014.02 1013.33 1012.68 1011.98 1011.25
1022.11 1020.91 1020.92 1021.16 1021.17 1021.40 1021.10 1020.73 1020.31 1019.62 1019.14 1019.02 1018.48 1018.12 1017.24 1016.77 1016.46 1016.25 1015.71 1015.22 1014.64 1013.97 1013.29 1012.64 1012.13 1011.48 1010.75
1022.24 1021.56 1021.08 1020.52 1020.33 1020.72 1020.68 1020.90 1020.59 1019.97 1019.20 1019.07 1018.53 1018.09 1017.62 1016.48 1016.01 1015.73 1015.33 1014.57 1014.01 1013.28 1012.63 1012.07 1011.59 1011.16 1010.25
1021.87 1021.74 1021.38 1021.13 1020.91 1020.64 1020.80 1020.68 1020.73 1020.17 1019.58 1019.21 1018.43 1017.89 1017.28 1016.44 1015.70 1015.13 1014.81 1014.31 1013.67 1012.90 1012.23 1011.57 1010.91 1010.10 1009.59
1021.90 1021.98 1021.94 1021.59 1021.25 1020.74 1020.22 1020.14 1019.74 1019.12 1018.75 1018.49 1018.22 1017.66 1017.32 1016.72 1016.06 1015.21 1014.49 1013.69 1013.21 1012.50 1011.92 1011.16 1010.31 1009.49 1008.45
1022.01 1022.03 1021.79 1021.43 1021.10 1020.54 1020.14 1019.83 1019.25 1018.48 1018.01 1017.88 1017.86 1017.67 1017.12 1016.55 1015.91 1014.92 1014.30 1013.70 1012.78 1012.21 1011.45 1010.61 1009.73 1008.91 1008.09
1021.74 1021.58 1021.46 1021.34 1020.67 1020.34 1020.05 1019.47 1019.10 1018.46 1017.82 1017.48 1017.16 1017.15 1016.81 1016.34 1015.56 1014.65 1013.77 1013.14 1012.55 1011.81 1011.20 1010.04 1009.12 1008.19 1007.26
1021.51 1021.36 1021.18 1020.75 1020.33 1019.98 1019.58 1019.31 1018.82 1018.35 1017.85 1017.30 1016.83 1016.51 1015.82 1015.04 1014.81 1013.95 1013.49 1012.90 1012.17 1011.54 1010.88 1009.84 1008.32 1007.28 1006.65
1021.36 1021.07 1020.67 1020.26 1019.95 1019.72 1019.44 1019.07 1018.59 1018.13 1017.50 1016.97 1016.64 1016.34 1015.43 1014.37 1013.77 1013.46 1013.23 1012.64 1011.91 1011.07 1010.33 1009.68 1008.58 1007.01 1006.27
Thickness
5493 5489 5482 5482 5481 5476 5473 5469 5467 5463 5460 5458 5457 5452 5449 5449 5448 5447 5445 5446 5445 5444 5443 5446 5447 5450 5454
5477 5475 5469 5464 5462 5459 5456 5454 5451 5445 5442 5437 5437 5432 5430 5425 5423 5424 5423 5420 5418 5416 5415 5417 5418 5420 5423
5465 5462 5456 5451 5449 5444 5440 5438 5434 5430 5426 5423 5418 5411 5406 5406 5402 5397 5395 5390 5388 5385 5382 5381 5381 5382 5387
5453 5448 5441 5437 5433 5434 5433 5426 5422 5416 5408 5407 5400 5395 5385 5382 5379 5369 5363 5359 5354 5350 5346 5345 5343 5343 5347
5441 5433 5429 5425 5421 5417 5414 5411 5405 5398 5395 5386 5378 5378 5369 5358 5350 5339 5330 5324 5319 5317 5315 5313 5312 5314 5317
5425 5422 5417 5414 5409 5406 5400 5392 5391 5378 5375 5367 5357 5352 5341 5330 5317 5306 5301 5298 5297 5296 5293 5292 5292 5293 5296
5409 5404 5402 5397 5392 5387 5377 5371 5365 5359 5345 5343 5330 5325 5319 5307 5292 5286 5282 5279 5278 5278 5275 5275 5275 5277 5280
5390 5392 5385 5377 5371 5372 5364 5355 5348 5335 5322 5322 5311 5304 5297 5288 5275 5269 5263 5260 5261 5262 5260 5260 5261 5264 5267
5379 5371 5366 5362 5356 5352 5345 5339 5332 5320 5304 5296 5290 5285 5280 5272 5259 5250 5247 5246 5247 5249 5248 5249 5251 5255 5260
5369 5370 5362 5351 5341 5329 5322 5313 5304 5299 5282 5275 5271 5260 5266 5257 5247 5235 5236 5235 5235 5238 5239 5241 5242 5245 5251
5353 5350 5343 5335 5326 5311 5299 5286 5279 5273 5264 5256 5254 5246 5240 5247 5240 5230 5225 5227 5227 5231 5233 5235 5234 5233 5239
5340 5330 5323 5313 5300 5289 5276 5267 5256 5253 5248 5238 5239 5234 5231 5232 5232 5227 5220 5219 5219 5223 5226 5229 5230 5233 5233
5323 5311 5300 5290 5280 5271 5262 5254 5248 5241 5237 5231 5227 5224 5217 5215 5216 5215 5215 5217 5213 5216 5219 5223 5227 5229 5236
5302 5291 5281 5272 5262 5255 5249 5242 5237 5232 5227 5224 5217 5210 5208 5205 5205 5208 5207 5205 5211 5211 5215 5219 5223 5224 5230
5284 5276 5266 5255 5249 5240 5233 5231 5226 5223 5219 5211 5208 5203 5199 5197 5198 5200 5204 5203 5203 5207 5209 5218 5222 5224 5230
5268 5258 5249 5243 5235 5228 5223 5219 5216 5211 5207 5204 5202 5197 5199 5199 5192 5195 5196 5197 5200 5202 5204 5212 5224 5226 5232
5252 5243 5236 5230 5224 5217 5212 5208 5205 5201 5199 5196 5193 5188 5192 5197 5195 5186 5189 5191 5195 5199 5202 5206 5214 5225 5232